Location: Albany
(42.6526°N, 73.7562°W)
Time: 02:47:44
(UTC+00:00)

BREEZE-M DEB (TANK) - Pass Details

Date: 19 November 2019
Orbit: 334 x 14786 km, 49.5° (Epoch: 15 December)

Event Time Altitude Azimuth Distance (km) Brightness Sun altitude
Rises 22:06:26 0° 246° (WSW) 2,512 8.8 -7.1°
Reaches altitude 10° 22:07:48 10° 248° (WSW) 1,887 7.4 -7.4°
Maximum altitude 22:11:33 80° 335° (NNW) 1,009 4.1 -8.0°
Enters shadow 22:24:29 11° 64° (ENE) 6,097 7.4 -10.3°
